[[{"header":{"parameterUnit":"m.s-1","parameterCategory":2,"la1":30.2991,"la2":30.254,"lo1":-89.0895,"lo2":-89.0444,"dy":0.0017,"dx":0.0017,"nx":28,"ny":28,"refTime":"2025-12-26T09:00:00:Z","depth":"0","parameterNumber":2,"parameterNumberName":"U-component_of_CURRENTS"},"data":[0,0,0,0,0,0,0,0,0,0,0,0,0,0,0,0,0,0,0,0,0,0,0,0,0,0,0,0,0,0,0,0,0,0,0,0,0,0,0,0,0,0,0,0,0,0,0,0,0,0,0,0,0,0,0,0,0,0,0.3504,0.3504,0,0.3487,0.3487,0.3486,0.3459,0.3459,0.3459,0.3459,0.3482,0.3483,0.3484,0,0,0,0,0,0,0,0,0,0,0,0,0,0.3497,0.3497,0.3504,0.3504,0.3504,0.3487,0.3487,0.3486,0.3459,0.3459,0.3459,0.3459,0.3482,0.3483,0.3484,0,0,0,0,0,0,0,0,0,0,0,0,0,0.3489,0.3497,0.3504,0.3491,0.349,0.3487,0.3487,0.3486,0.3459,0.3459,0.3459,0.3458,0.3482,0.3483,0.3484,0.3498,0,0,0.3488,0.3489,0,0,0,0,0,0,0,0,0.349,0.3489,0.3493,0.3492,0.3491,0.3478,0.3493,0.3493,0.3459,0.3468,0.3459,0.3458,0.3487,0.3488,0.348,0.3499,0.35,0.3488,0.3489,0.3489,0.349,0,0,0,0,0,0,0,0.349,0.349,0.3494,0.3493,0.3492,0.3481,0.3479,0.3492,0.3477,0.3467,0.3466,0.3469,0.3486,0.3479,0.3481,0.35,0.3488,0.3489,0.349,0.349,0.3536,0.3537,0,0,0,0,0,0,0.35,0.349,0.3495,0.3494,0.3493,0.3482,0.348,0.348,0.3476,0.3476,0.3469,0.3468,0.3477,0.3479,0.3482,0.35,0.3489,0.3491,0.3491,0.3536,0.3537,0.3537,0,0,0,0,0,0,0.35,0.35,0.3495,0.3494,0.3493,0.3482,0.3482,0.348,0.3472,0.3478,0.3478,0.3465,0.3477,0.348,0.3491,0.3501,0.3491,0.3492,0.3535,0.3536,0.3537,0.3537,0,0,0,0,0,0,0.35,0.35,0.3501,0.3495,0.3494,0.3489,0.3483,0.3479,0.3476,0.3474,0.3475,0.3477,0.3477,0.3489,0.3492,0.3503,0.3493,0.3535,0.3536,0.3537,0.3536,0.3537,0.3538,0,0,0,0,0,0.3499,0.3499,0.3501,0.3502,0.3496,0.349,0.3487,0.3477,0.3477,0.3469,0.3473,0.3477,0.3497,0.349,0.3493,0.3505,0.3534,0.3535,0.3537,0.3536,0.3537,0.3538,0,0,0,0,0,0,0.3495,0.3497,0.3498,0.3498,0.3495,0.3486,0.3479,0.348,0.3476,0.3474,0.3481,0.3483,0.3499,0.3503,0.3495,0.3522,0.3518,0.3519,0.3516,0.3517,0.3518,0.35,0.3494,0,0,0,0,0,0.3498,0.3498,0.3497,0.3498,0.3494,0.3489,0.3486,0.348,0.3479,0.3476,0.3481,0.349,0.3506,0.3511,0.3522,0.3535,0.3557,0.3546,0.3547,0.3548,0.3536,0.3576,0.358,0.3541,0.3541,0.3541,0,0,0.3501,0.3499,0.3501,0.3497,0.3491,0.3484,0.3484,0.3477,0.3475,0.3483,0.3479,0.3496,0.3512,0.3524,0.3532,0.3528,0.3577,0.3549,0.355,0.3537,0.3578,0.3582,0.3585,0.3541,0.3541,0.3541,0,0,0.35,0.3499,0.3496,0.3491,0.3484,0.348,0.3481,0.3474,0.347,0.3474,0.3486,0.3504,0.3519,0.3532,0.3542,0.3558,0.3585,0.3568,0.3555,0.3595,0.3599,0.3602,0.3662,0.367,0.3565,0.3565,0.3565,0,0.3505,0.3493,0.3494,0.3485,0.3476,0.348,0.3468,0.347,0.347,0.3466,0.3472,0.35,0.3521,0.354,0.3548,0.356,0.3592,0.3549,0.3597,0.36,0.3603,0.3664,0.3673,0.3565,0.3565,0.3565,0.3565,0,0.3498,0.3485,0.3479,0.3469,0.3464,0.3452,0.3454,0.3451,0.3453,0.3455,0.3469,0.3495,0.3509,0.353,0.3544,0.3578,0.3599,0.3597,0.3592,0.3607,0.367,0.368,0.3566,0.3565,0.3565,0.3565,0,0,0.3508,0.3481,0.3476,0.3458,0.3448,0.344,0.3439,0.343,0.3424,0.3438,0.3436,0.3476,0.3489,0.3502,0.353,0.3566,0.3637,0.359,0.3592,0.3647,0.3745,0.3668,0.3672,0.3645,0.3646,0.3647,0.379,0,0.3495,0.3469,0.346,0.3432,0.3412,0.3409,0.3405,0.3404,0.3407,0.3409,0.344,0.3455,0.348,0.3495,0.3534,0.3608,0.3658,0.36,0.3723,0.3727,0.3653,0.3677,0.3522,0.3627,0.38,0.3801,0.3802,0,0.348,0.3461,0.3432,0.3394,0.3386,0.3379,0.3358,0.3357,0.3368,0.3371,0.3388,0.3413,0.347,0.3488,0.3615,0.3578,0.366,0.3718,0.3725,0.3651,0.3665,0.3634,0.3638,0.3469,0.3817,0.3816,0.3815,0,0.3466,0.3431,0.3404,0.3393,0.3367,0.3353,0.3345,0.3345,0.3337,0.3353,0.3354,0.3409,0.3446,0.3541,0.3645,0.3646,0.3782,0.3803,0.3814,0.3812,0.3698,0.3682,0.3543,0.3894,0.3894,0.3893,0.3893,0,0.344,0.3415,0.3395,0.3378,0.3348,0.3338,0.3312,0.3311,0.3312,0.3303,0.3339,0.335,0.346,0.3537,0.3645,0.3744,0.3787,0.3812,0.3834,0.3696,0.3679,0.3541,0.3481,0.3899,0.3898,0.3897,0.3896,0,0.3423,0.3409,0.3376,0.3348,0.3338,0.3322,0.3292,0.3274,0.3282,0.3276,0.3283,0.333,0.3429,0.353,0.369,0.3733,0.3726,0.3871,0.3704,0.37,0.3534,0.3481,0.3346,0.3282,0.392,0.3919,0.3918,0,0.341,0.3391,0.3362,0.3342,0.3326,0.3299,0.3275,0.3265,0.3246,0.3261,0.3258,0.3333,0.3378,0.3555,0.3641,0.3789,0.3683,0.3709,0.3668,0.3486,0.3446,0.3355,0.3306,0.3552,0.3548,0.3545,0.3542,0,0.3385,0.338,0.3359,0.3325,0.3295,0.325,0.3217,0.32,0.319,0.3185,0.3192,0.3234,0.3369,0.3406,0.3545,0.3625,0.3478,0.3646,0.3496,0.3161,0.3016,0.2976,0.352,0.3514,0.3517,0.3519,0.352,0.3521,0.3374,0.3363,0.3339,0.33,0.3253,0.319,0.3131,0.3111,0.3075,0.3032,0.3114,0.3116,0.315,0.3324,0.3377,0.3254,0.3334,0.3167,0.3136,0.3074,0.2919,0.3394,0.3374,0.3376,0.3378,0.3379,0.338,0,0.3358,0.3342,0.3308,0.3239,0.3154,0.3146,0.307,0.2998,0.2933,0.2943,0.2938,0.2874,0.287,0.2896,0.2826,0.2735,0.2703,0.2633,0.2451,0.245,0.2899,0.2782,0.2581,0.2582,0.2582,0.2582,0.2582,0.2582,0.3348,0.3314,0.3295,0.3155,0.3087,0.2934,0.2873,0.2794,0.2763,0.2634,0.2553,0.2552,0.2485,0.2362,0.2207,0.2196,0.2055,0.1967,0.2008,0.227,0.2317,0.2361,0.2232,0.1919,0.1918,0.148,0.1476,0.1472]},{"header":{"parameterUnit":"m.s-1","parameterCategory":2,"la1":30.2991,"la2":30.254,"lo1":-89.0895,"lo2":-89.0444,"dy":0.0017,"dx":0.0017,"nx":28,"ny":28,"refTime":"2025-12-26T09:00:00:Z","depth":"0","parameterNumber":3,"parameterNumberName":"V-component_of_CURRENTS"},"data":[0,0,0,0,0,0,0,0,0,0,0,0,0,0,0,0,0,0,0,0,0,0,0,0,0,0,0,0,0,0,0,0,0,0,0,0,0,0,0,0,0,0,0,0,0,0,0,0,0,0,0,0,0,0,0,0,0,0,0.0099,0.0099,0,0.012,0.012,0.012,0.014,0.014,0.0141,0.0141,0.0164,0.0164,0.0165,0,0,0,0,0,0,0,0,0,0,0,0,0,0.0113,0.0112,0.0099,0.0099,0.01,0.0119,0.012,0.012,0.014,0.014,0.0141,0.0141,0.0164,0.0164,0.0165,0,0,0,0,0,0,0,0,0,0,0,0,0,0.0119,0.0112,0.0099,0.0111,0.0112,0.0119,0.012,0.012,0.014,0.014,0.0141,0.0141,0.0163,0.0164,0.0165,0.0165,0,0,0.0167,0.0167,0,0,0,0,0,0,0,0,0.0118,0.0118,0.0109,0.011,0.0111,0.0126,0.0133,0.0135,0.014,0.0131,0.0141,0.0141,0.015,0.0152,0.0158,0.0166,0.0167,0.0167,0.0167,0.0168,0.0168,0,0,0,0,0,0,0,0.0118,0.0118,0.0109,0.0109,0.0111,0.0127,0.0128,0.0134,0.014,0.0132,0.0133,0.0133,0.0151,0.0157,0.0158,0.0168,0.0167,0.0168,0.0168,0.0168,0.0206,0.0206,0,0,0,0,0,0,0.011,0.0117,0.0108,0.0109,0.0114,0.0126,0.0127,0.0123,0.014,0.0143,0.0133,0.0134,0.0155,0.0157,0.0159,0.0188,0.0168,0.0168,0.0169,0.0205,0.0206,0.0206,0,0,0,0,0,0,0.011,0.0109,0.0107,0.0113,0.0114,0.0125,0.012,0.0123,0.0128,0.0141,0.0144,0.0135,0.0156,0.0158,0.0178,0.0188,0.0169,0.0169,0.0204,0.0205,0.0206,0.0229,0,0,0,0,0,0,0.0111,0.0109,0.0106,0.0112,0.0113,0.0112,0.012,0.0123,0.0127,0.0129,0.0144,0.0146,0.0156,0.0177,0.0179,0.0189,0.017,0.0204,0.0205,0.0206,0.0228,0.0231,0.0233,0,0,0,0,0,0.0111,0.0103,0.0105,0.0104,0.0107,0.0112,0.0115,0.0125,0.0127,0.013,0.015,0.0146,0.0185,0.0178,0.018,0.0191,0.0203,0.0205,0.0206,0.0226,0.023,0.0233,0,0,0,0,0,0,0.0104,0.0105,0.0107,0.0099,0.0106,0.0115,0.0116,0.0123,0.0139,0.014,0.0155,0.0159,0.0181,0.0181,0.0173,0.0204,0.0192,0.0194,0.0207,0.0211,0.0213,0.0215,0.0171,0,0,0,0,0,0.01,0.0098,0.0102,0.0096,0.0096,0.0106,0.0109,0.0116,0.0129,0.0136,0.015,0.0166,0.0187,0.0195,0.0209,0.0223,0.0223,0.0231,0.0233,0.0236,0.0238,0.0249,0.0252,0.021,0.021,0.021,0,0,0.0095,0.0096,0.0094,0.0095,0.0099,0.0109,0.0108,0.011,0.0127,0.0135,0.0162,0.0175,0.0193,0.0218,0.0226,0.0219,0.0248,0.0237,0.0239,0.024,0.025,0.0254,0.0258,0.0211,0.0211,0.0211,0,0,0.0088,0.0083,0.0082,0.009,0.0095,0.0105,0.0105,0.0116,0.0127,0.015,0.0167,0.019,0.0211,0.0235,0.0248,0.0272,0.0263,0.027,0.0285,0.0295,0.0299,0.0302,0.0308,0.0311,0.027,0.027,0.027,0,0.0084,0.0082,0.0083,0.009,0.0099,0.0104,0.0114,0.0128,0.0149,0.0163,0.016,0.0212,0.0224,0.0266,0.0278,0.0279,0.0278,0.0272,0.0299,0.0302,0.0305,0.031,0.0313,0.0272,0.0272,0.0271,0.0271,0,0.0082,0.0085,0.0083,0.0099,0.0111,0.0115,0.0135,0.015,0.0162,0.0181,0.0217,0.0239,0.027,0.0277,0.0287,0.0317,0.0308,0.0302,0.029,0.031,0.0314,0.0318,0.0273,0.0273,0.0273,0.0272,0,0,0.0063,0.0079,0.0081,0.0092,0.0115,0.0124,0.0153,0.0182,0.0205,0.0225,0.0261,0.0295,0.0302,0.0317,0.033,0.0341,0.0362,0.0329,0.0329,0.0333,0.038,0.0364,0.0366,0.0357,0.0357,0.0358,0.0375,0,0.0062,0.0075,0.009,0.0113,0.012,0.0144,0.0175,0.0206,0.0231,0.0268,0.0291,0.0328,0.0319,0.0337,0.0347,0.0368,0.0371,0.0357,0.036,0.036,0.0343,0.037,0.0394,0.041,0.0378,0.0378,0.0379,0,0.0054,0.0067,0.0083,0.0121,0.0127,0.0149,0.0197,0.0227,0.0279,0.0299,0.0333,0.0354,0.0394,0.0372,0.0404,0.0394,0.0384,0.0387,0.0388,0.0367,0.0351,0.0385,0.0417,0.0345,0.0384,0.0383,0.0383,0,0.0036,0.0063,0.0077,0.0088,0.0132,0.015,0.018,0.0232,0.0269,0.032,0.0356,0.039,0.0426,0.042,0.0434,0.0416,0.0459,0.0435,0.0407,0.0406,0.0425,0.0424,0.0388,0.0436,0.0436,0.0436,0.0436,0,0.0025,0.0035,0.0067,0.0075,0.0106,0.014,0.0184,0.0219,0.0281,0.0344,0.0369,0.0431,0.0438,0.047,0.0451,0.0453,0.0472,0.0417,0.0413,0.0433,0.0432,0.0368,0.0316,0.0436,0.0436,0.0436,0.0436,0,-0.0003,0.0014,0.0035,0.0079,0.0094,0.0117,0.0187,0.023,0.0281,0.0366,0.0389,0.0471,0.0524,0.0522,0.0535,0.0488,0.0453,0.0466,0.0488,0.0485,0.0369,0.0318,0.0297,0.0294,0.0431,0.0431,0.0431,0,-0.0018,-0.0013,0.0033,0.0056,0.0074,0.0115,0.0158,0.022,0.028,0.0405,0.0459,0.0534,0.0625,0.0634,0.0578,0.054,0.0474,0.0488,0.0451,0.0371,0.0312,0.0293,0.0291,0.0488,0.0489,0.0489,0.0489,0,-0.0037,-0.0021,0.0005,0.0048,0.0089,0.0147,0.0215,0.0266,0.0367,0.0452,0.0592,0.0675,0.0703,0.0717,0.0643,0.0593,0.0447,0.0489,0.0412,0.0356,0.0331,0.0324,0.046,0.0491,0.0491,0.0491,0.0491,0.0491,-0.0043,-0.0026,0.0014,0.0055,0.0109,0.0198,0.0272,0.0365,0.0484,0.0662,0.07,0.0874,0.0828,0.0761,0.0659,0.0466,0.0466,0.0399,0.0346,0.0337,0.0323,0.0454,0.0471,0.0471,0.0471,0.0471,0.047,0,-0.0042,-0.0013,0.0026,0.0096,0.0168,0.0201,0.0331,0.0432,0.0599,0.0771,0.0904,0.1017,0.0927,0.0793,0.0527,0.0362,0.0326,0.0266,0.0248,0.0255,0.0382,0.0372,0.0363,0.0363,0.0363,0.0363,0.0363,0.0363,-0.0032,0.0,0.0024,0.0137,0.0204,0.0341,0.0438,0.0584,0.0737,0.0978,0.1135,0.1231,0.1124,0.0611,0.028,0.0207,0.0121,0.0095,0.0049,0.0115,0.0124,0.0132,0.0111,0.0046,0.0046,-0.0019,-0.002,-0.0021]}],[{"header":{"parameterUnit":"m.s-1","parameterCategory":2,"la1":30.2991,"la2":30.254,"lo1":-89.0895,"lo2":-89.0444,"dy":0.0017,"dx":0.0017,"nx":28,"ny":28,"refTime":"2025-12-26T09:00:00:Z","depth":"2","parameterNumber":2,"parameterNumberName":"U-component_of_CURRENTS"},"data":[0,0,0,0,0,0,0,0,0,0,0,0,0,0,0,0,0,0,0,0,0,0,0,0,0,0,0,0,0,0,0,0,0,0,0,0,0,0,0,0,0,0,0,0,0,0,0,0,0,0,0,0,0,0,0,0,0,0,0.0828,0.0828,0,0.084,0.084,0.084,0.0886,0.0887,0.0888,0.0889,0.0969,0.097,0.0971,0,0,0,0,0,0,0,0,0,0,0,0,0,0.0834,0.0833,0.0828,0.0828,0.0828,0.084,0.084,0.084,0.0886,0.0887,0.0889,0.089,0.0969,0.097,0.0971,0,0,0,0,0,0,0,0,0,0,0,0,0,0.0837,0.0833,0.0828,0.0853,0.0855,0.084,0.084,0.084,0.0886,0.0887,0.0889,0.0891,0.0968,0.097,0.0971,0.0948,0,0,0.0976,0.0977,0,0,0,0,0,0,0,0,0.0836,0.0836,0.0849,0.0851,0.0854,0.0864,0.0871,0.088,0.0885,0.0873,0.0889,0.0891,0.0939,0.0943,0.094,0.0952,0.0955,0.0976,0.0977,0.0978,0.0979,0,0,0,0,0,0,0,0.0836,0.0836,0.0832,0.0849,0.0852,0.086,0.0862,0.0873,0.0898,0.0875,0.0878,0.088,0.0941,0.0938,0.0943,0.0957,0.0976,0.0978,0.0979,0.098,0.1088,0.109,0,0,0,0,0,0,0.0834,0.0835,0.0832,0.0832,0.085,0.0859,0.0861,0.0858,0.0896,0.0903,0.0878,0.0882,0.0935,0.0941,0.0946,0.1039,0.0978,0.098,0.0981,0.1087,0.1089,0.1091,0,0,0,0,0,0,0.0834,0.0833,0.0831,0.0835,0.0836,0.0857,0.0853,0.0858,0.0884,0.0898,0.0907,0.0903,0.0936,0.0943,0.0992,0.1039,0.098,0.0982,0.1084,0.1087,0.109,0.1151,0,0,0,0,0,0,0.0834,0.0833,0.084,0.0835,0.0835,0.084,0.0852,0.0857,0.0881,0.0886,0.0922,0.0929,0.0938,0.099,0.0994,0.104,0.0983,0.1082,0.1086,0.1089,0.1147,0.1156,0.1164,0,0,0,0,0,0.0834,0.0831,0.084,0.084,0.084,0.084,0.0841,0.0862,0.0881,0.0891,0.0929,0.093,0.1016,0.0992,0.0996,0.1044,0.108,0.1085,0.1089,0.1143,0.1154,0.1163,0,0,0,0,0,0,0.0843,0.0835,0.0845,0.0842,0.0851,0.0849,0.0858,0.0873,0.0907,0.0924,0.0944,0.0954,0.1018,0.1018,0.0991,0.1088,0.1052,0.1057,0.1092,0.1102,0.111,0.1115,0.0985,0,0,0,0,0,0.0844,0.0839,0.084,0.0843,0.0846,0.0858,0.0865,0.0879,0.0902,0.0919,0.0948,0.0987,0.1031,0.1057,0.1085,0.1126,0.1152,0.1163,0.1172,0.1179,0.1187,0.128,0.1298,0.1105,0.1105,0.1105,0,0,0.0851,0.0845,0.0845,0.0844,0.0852,0.0864,0.0867,0.0882,0.0911,0.0921,0.0979,0.1014,0.1049,0.1108,0.1137,0.1119,0.1246,0.1184,0.119,0.1194,0.1287,0.1306,0.1322,0.1108,0.1108,0.1107,0,0,0.0854,0.0854,0.0854,0.0859,0.0872,0.0878,0.089,0.0906,0.0936,0.0979,0.1015,0.108,0.1121,0.1173,0.12,0.1268,0.1287,0.1282,0.133,0.1421,0.1438,0.1453,0.1503,0.1522,0.1287,0.1287,0.1287,0,0.0871,0.0862,0.0857,0.0862,0.0872,0.089,0.0906,0.0931,0.097,0.101,0.1008,0.113,0.1155,0.1259,0.1288,0.1289,0.1332,0.1288,0.1433,0.1448,0.1463,0.1511,0.1531,0.1291,0.129,0.129,0.129,0,0.0873,0.0874,0.0875,0.0888,0.0901,0.0912,0.0943,0.0983,0.1019,0.1055,0.116,0.1206,0.1285,0.131,0.1318,0.1445,0.1438,0.1433,0.1407,0.1486,0.1531,0.1551,0.1296,0.1294,0.1293,0.1293,0,0,0.0911,0.0879,0.0888,0.0889,0.0914,0.0922,0.0982,0.1039,0.1096,0.1158,0.1242,0.1335,0.1377,0.1412,0.1451,0.1528,0.1659,0.1528,0.1532,0.1576,0.1849,0.1657,0.166,0.1691,0.1695,0.1698,0.1836,0,0.0927,0.0909,0.0908,0.0928,0.0926,0.0963,0.1012,0.1076,0.1138,0.1224,0.1314,0.14,0.1413,0.1465,0.1553,0.1638,0.1717,0.1621,0.1766,0.177,0.1589,0.1679,0.1544,0.1639,0.1856,0.1859,0.1861,0,0.0958,0.0928,0.0927,0.0932,0.0941,0.097,0.1057,0.1103,0.1229,0.1282,0.14,0.1464,0.1609,0.1589,0.1796,0.1741,0.1803,0.1855,0.1861,0.1674,0.1615,0.1597,0.1667,0.1895,0.1892,0.189,0.1887,0,0.0983,0.0965,0.0954,0.0955,0.0963,0.0999,0.1029,0.1135,0.1188,0.1334,0.1394,0.1564,0.1654,0.1783,0.1894,0.1866,0.2096,0.2064,0.195,0.1936,0.1841,0.181,0.2205,0.2205,0.2205,0.2204,0.2204,0,0.1002,0.1019,0.096,0.0957,0.0971,0.0997,0.1063,0.1124,0.1229,0.1313,0.143,0.1536,0.1712,0.1854,0.194,0.2007,0.2143,0.1973,0.197,0.1852,0.1822,0.2053,0.2034,0.2209,0.2208,0.2207,0.2206,0,0.1053,0.1024,0.1005,0.0976,0.0981,0.0997,0.1048,0.1098,0.1201,0.1317,0.1368,0.1554,0.1738,0.1881,0.2089,0.2036,0.2131,0.2117,0.1936,0.1904,0.1896,0.1879,0.1995,0.199,0.1985,0.1981,0.1978,0,0.1062,0.1043,0.0995,0.0982,0.0975,0.0994,0.1017,0.1087,0.1142,0.1333,0.139,0.159,0.1703,0.1892,0.1915,0.1998,0.2104,0.1836,0.1723,0.1895,0.1881,0.1871,0.186,0.1647,0.1642,0.1637,0.1633,0,0.1046,0.104,0.101,0.0969,0.097,0.0977,0.1016,0.1053,0.1166,0.1261,0.1432,0.153,0.1664,0.1677,0.1699,0.1722,0.1798,0.1729,0.205,0.1665,0.1562,0.1549,0.1552,0.1592,0.1596,0.1599,0.1601,0.1603,0.1031,0.1006,0.096,0.0954,0.0959,0.0991,0.1025,0.1077,0.1164,0.13,0.1376,0.1458,0.1454,0.142,0.143,0.1433,0.1515,0.1439,0.1457,0.148,0.1359,0.1248,0.1197,0.1198,0.12,0.1201,0.1202,0,0.0973,0.0981,0.0945,0.0951,0.0984,0.1008,0.1052,0.1059,0.1176,0.123,0.1319,0.1164,0.1136,0.1218,0.1128,0.1039,0.1085,0.1024,0.1109,0.1146,0.1181,0.105,0.0804,0.0803,0.0802,0.0802,0,0,0.094,0.092,0.0921,0.0978,0.1031,0.1105,0.1156,0.1126,0.1124,0.1092,0.1105,0.1104,0.1122,0.095,0.0901,0.0868,0.1016,0.0834,0.1147,0.1285,0.1319,0.1398,0.1232,0,0,0,0,0]},{"header":{"parameterUnit":"m.s-1","parameterCategory":2,"la1":30.2991,"la2":30.254,"lo1":-89.0895,"lo2":-89.0444,"dy":0.0017,"dx":0.0017,"nx":28,"ny":28,"refTime":"2025-12-26T09:00:00:Z","depth":"2","parameterNumber":3,"parameterNumberName":"V-component_of_CURRENTS"},"data":[0,0,0,0,0,0,0,0,0,0,0,0,0,0,0,0,0,0,0,0,0,0,0,0,0,0,0,0,0,0,0,0,0,0,0,0,0,0,0,0,0,0,0,0,0,0,0,0,0,0,0,0,0,0,0,0,0,0,0.0225,0.0224,0,0.0205,0.0205,0.0205,0.0174,0.0173,0.0173,0.0172,0.0087,0.0085,0.0084,0,0,0,0,0,0,0,0,0,0,0,0,0,0.0238,0.0238,0.0225,0.0224,0.0224,0.0205,0.0205,0.0205,0.0174,0.0173,0.0173,0.0172,0.0087,0.0085,0.0083,0,0,0,0,0,0,0,0,0,0,0,0,0,0.0227,0.0238,0.0225,0.0206,0.0204,0.0205,0.0205,0.0205,0.0174,0.0173,0.0172,0.0171,0.0088,0.0086,0.0083,0.0087,0,0,0.0075,0.0074,0,0,0,0,0,0,0,0,0.0228,0.0227,0.0209,0.0207,0.0205,0.019,0.0178,0.0162,0.0175,0.0187,0.0172,0.0171,0.0115,0.0111,0.0111,0.0083,0.0079,0.0075,0.0074,0.0073,0.0072,0,0,0,0,0,0,0,0.0229,0.0228,0.0218,0.0209,0.0206,0.0199,0.0196,0.0175,0.0156,0.0185,0.0183,0.0179,0.0114,0.0114,0.0109,0.0078,0.0075,0.0073,0.0072,0.0071,0.0016,0.0016,0,0,0,0,0,0,0.023,0.0229,0.0218,0.0217,0.0213,0.0199,0.0197,0.0197,0.0158,0.0151,0.018,0.0178,0.0119,0.0112,0.0106,0.0117,0.0073,0.007,0.0069,0.0016,0.0016,0.0016,0,0,0,0,0,0,0.0231,0.023,0.0219,0.0221,0.0219,0.02,0.02,0.0197,0.0184,0.0154,0.0146,0.017,0.0118,0.0109,0.009,0.0113,0.0069,0.0067,0.0015,0.0016,0.0016,0.0133,0,0,0,0,0,0,0.0231,0.023,0.0229,0.0222,0.0219,0.0225,0.0201,0.0197,0.0184,0.018,0.0143,0.0135,0.0116,0.0094,0.0087,0.0108,0.0065,0.0015,0.0016,0.0016,0.0129,0.0137,0.0144,0,0,0,0,0,0.0232,0.0238,0.023,0.0228,0.0219,0.0226,0.0225,0.0208,0.0184,0.019,0.0163,0.0135,0.0089,0.0092,0.0085,0.0106,0.0015,0.0015,0.0016,0.0126,0.0135,0.0143,0,0,0,0,0,0,0.0237,0.0235,0.0226,0.0228,0.0228,0.022,0.0218,0.0204,0.0188,0.0175,0.0143,0.0134,0.0124,0.009,0.0094,0.0085,0.0044,0.0043,0.0131,0.0139,0.0147,0.0175,0.0063,0,0,0,0,0,0.024,0.0244,0.0241,0.0241,0.024,0.0226,0.0223,0.0213,0.0198,0.0189,0.0167,0.0135,0.0121,0.011,0.0088,0.0086,0.0058,0.0088,0.0095,0.0102,0.0117,0.0092,0.01,0.0016,0.0016,0.0016,0,0,0.024,0.0239,0.0239,0.0243,0.0236,0.0256,0.0222,0.0218,0.0237,0.0182,0.019,0.0159,0.0124,0.0129,0.0121,0.0104,0.0112,0.0102,0.0109,0.012,0.0094,0.0102,0.011,0.0016,0.0016,0.0016,0,0,0.0254,0.0242,0.0256,0.0265,0.0262,0.0263,0.0262,0.0254,0.0251,0.0255,0.0223,0.0211,0.0178,0.0178,0.0168,0.0197,0.015,0.0173,0.0243,0.0219,0.0227,0.0233,0.0221,0.0225,0.0181,0.0181,0.0181,0,0.0251,0.0276,0.0261,0.0284,0.03,0.027,0.0301,0.0301,0.029,0.0304,0.0265,0.0247,0.0211,0.0241,0.025,0.022,0.0194,0.0221,0.0233,0.0238,0.0243,0.0228,0.0231,0.0187,0.0186,0.0185,0.0185,0,0.0286,0.0308,0.0316,0.0344,0.0359,0.0376,0.0383,0.0392,0.0377,0.0383,0.0393,0.0351,0.0344,0.0328,0.0299,0.0321,0.0289,0.0247,0.0221,0.0259,0.024,0.0242,0.0195,0.0193,0.0191,0.019,0,0,0.0268,0.0332,0.0333,0.0373,0.0395,0.0417,0.0453,0.0494,0.0528,0.0505,0.055,0.0521,0.049,0.0475,0.0434,0.0415,0.0424,0.0349,0.0345,0.0358,0.0378,0.0348,0.0346,0.038,0.0381,0.0381,0.0357,0,0.0299,0.0372,0.0394,0.0467,0.0508,0.0519,0.0566,0.0597,0.0604,0.0638,0.0606,0.0611,0.0549,0.0536,0.0517,0.0445,0.043,0.0435,0.0321,0.0318,0.0304,0.0347,0.0305,0.0279,0.0358,0.0358,0.0358,0,0.0318,0.0377,0.0454,0.0556,0.0574,0.0606,0.0685,0.0724,0.0764,0.0766,0.0772,0.0739,0.0729,0.0645,0.0573,0.0575,0.049,0.0427,0.0424,0.0358,0.0291,0.0248,0.0278,0.036,0.036,0.036,0.036,0,0.0317,0.0416,0.0487,0.0516,0.0617,0.0652,0.0697,0.0753,0.0796,0.0831,0.0849,0.0841,0.0808,0.0727,0.0606,0.0582,0.0514,0.0459,0.0361,0.0358,0.0282,0.0271,0.0403,0.0403,0.0403,0.0403,0.0403,0,0.034,0.0393,0.0488,0.0527,0.0615,0.0671,0.075,0.0793,0.0852,0.0909,0.0897,0.0929,0.0817,0.0768,0.0656,0.0529,0.0551,0.0392,0.0355,0.0321,0.0314,0.0342,0.0336,0.0402,0.0403,0.0403,0.0403,0,0.0316,0.0374,0.0464,0.058,0.0609,0.0663,0.0763,0.0824,0.0871,0.0938,0.0944,0.0977,0.092,0.0816,0.0686,0.0578,0.0466,0.0406,0.0384,0.0345,0.0315,0.0314,0.0307,0.0306,0.0305,0.0304,0.0303,0,0.0318,0.036,0.0481,0.0526,0.0568,0.0653,0.0711,0.08,0.0868,0.0973,0.1011,0.0996,0.1007,0.0844,0.0644,0.0466,0.0456,0.0309,0.0252,0.0343,0.0307,0.0308,0.0309,0.0199,0.0197,0.0196,0.0195,0,0.0339,0.0363,0.0446,0.0523,0.0584,0.0667,0.0757,0.0832,0.0943,0.1015,0.1119,0.1142,0.0986,0.0805,0.056,0.044,0.034,0.0277,0.0379,0.0231,0.0239,0.0204,0.0209,0.0184,0.0185,0.0186,0.0187,0.0187,0.035,0.0397,0.0481,0.0545,0.0593,0.0668,0.0769,0.0879,0.1007,0.1131,0.1156,0.1154,0.0937,0.0604,0.0429,0.0244,0.0255,0.0158,0.0163,0.0168,0.0162,0.0167,0.0099,0.0099,0.01,0.01,0.0101,0,0.0393,0.0428,0.05,0.0583,0.0616,0.0629,0.079,0.0916,0.1077,0.1121,0.1179,0.0946,0.0753,0.0557,0.0243,0.0069,0.0068,0.004,0.005,0.006,0.007,0.0059,-0.0032,-0.0032,-0.0032,-0.0032,0,0,0.043,0.05,0.0529,0.0583,0.0602,0.0684,0.078,0.0955,0.1049,0.1126,0.1076,0.0991,0.0747,0.0476,0.0252,0.0113,0.0138,0.0097,0.021,0.0256,0.0268,0.0133,0.0128,0,0,0,0,0]}],[{"header":{"parameterUnit":"m.s-1","parameterCategory":2,"la1":30.2991,"la2":30.254,"lo1":-89.0895,"lo2":-89.0444,"dy":0.0017,"dx":0.0017,"nx":28,"ny":28,"refTime":"2025-12-26T09:00:00:Z","depth":"4","parameterNumber":2,"parameterNumberName":"U-component_of_CURRENTS"},"data":[0,0,0,0,0,0,0,0,0,0,0,0,0,0,0,0,0,0,0,0,0,0,0,0,0,0,0,0,0,0,0,0,0,0,0,0,0,0,0,0,0,0,0,0,0,0,0,0,0,0,0,0,0,0,0,0,0,0,-0.0193,-0.0193,0,-0.0195,-0.0195,-0.0195,-0.0169,-0.0168,-0.0168,-0.0167,-0.0142,-0.0142,-0.0142,0,0,0,0,0,0,0,0,0,0,0,0,0,-0.0198,-0.0198,-0.0193,-0.0193,-0.0193,-0.0195,-0.0195,-0.0195,-0.0169,-0.0168,-0.0167,-0.0167,-0.0142,-0.0142,-0.0142,0,0,0,0,0,0,0,0,0,0,0,0,0,-0.0197,-0.0198,-0.0193,-0.018,-0.0179,-0.0195,-0.0195,-0.0195,-0.0169,-0.0168,-0.0167,-0.0166,-0.0142,-0.0142,-0.0142,-0.0162,0,0,-0.0141,-0.0141,0,0,0,0,0,0,0,0,-0.0197,-0.0197,-0.0182,-0.0181,-0.018,-0.0181,-0.0187,-0.0182,-0.0169,-0.0173,-0.0167,-0.0166,-0.0153,-0.0152,-0.0155,-0.016,-0.0159,-0.0141,-0.0141,-0.0141,-0.0141,0,0,0,0,0,0,0,-0.0197,-0.0197,-0.0193,-0.0182,-0.0181,-0.0186,-0.0184,-0.0187,-0.0168,-0.0172,-0.0171,-0.0172,-0.0152,-0.0155,-0.0154,-0.0159,-0.0141,-0.0141,-0.0141,-0.0141,-0.0111,-0.011,0,0,0,0,0,0,-0.0197,-0.0197,-0.0193,-0.0193,-0.0187,-0.0186,-0.0184,-0.0181,-0.0168,-0.0166,-0.0173,-0.017,-0.0156,-0.0154,-0.0153,-0.0101,-0.0141,-0.0141,-0.0141,-0.0111,-0.011,-0.011,0,0,0,0,0,0,-0.0197,-0.0197,-0.0193,-0.0196,-0.0195,-0.0187,-0.0184,-0.0182,-0.0155,-0.0169,-0.0165,-0.0144,-0.0155,-0.0153,-0.0125,-0.0103,-0.0141,-0.0141,-0.0112,-0.0111,-0.011,-0.0046,0,0,0,0,0,0,-0.0197,-0.0196,-0.0192,-0.0195,-0.0195,-0.0185,-0.0185,-0.0183,-0.016,-0.0156,-0.0144,-0.0143,-0.0154,-0.0125,-0.0125,-0.0104,-0.0141,-0.0113,-0.0112,-0.011,-0.0049,-0.0043,-0.0038,0,0,0,0,0,-0.0197,-0.0194,-0.0192,-0.0192,-0.019,-0.0185,-0.0185,-0.0176,-0.0159,-0.0147,-0.0131,-0.0142,-0.0116,-0.0124,-0.0125,-0.0102,-0.0114,-0.0112,-0.0111,-0.0052,-0.0044,-0.0038,0,0,0,0,0,0,-0.0197,-0.0191,-0.0189,-0.0184,-0.0178,-0.018,-0.0171,-0.0159,-0.0138,-0.012,-0.0129,-0.0126,-0.0097,-0.0109,-0.0117,-0.0091,-0.0118,-0.0117,-0.0074,-0.0067,-0.0061,-0.0043,-0.0141,0,0,0,0,0,-0.0196,-0.019,-0.0185,-0.0182,-0.0174,-0.0166,-0.016,-0.0144,-0.013,-0.0118,-0.0102,-0.0093,-0.0097,-0.0086,-0.0087,-0.0069,-0.0095,-0.0057,-0.0051,-0.0046,-0.0031,-0.0066,-0.0062,-0.0104,-0.0104,-0.0104,0,0,-0.0201,-0.0194,-0.0194,-0.0182,-0.0175,-0.0147,-0.0158,-0.0132,-0.0097,-0.012,-0.0058,-0.0068,-0.0088,-0.0067,-0.0055,-0.0068,-0.0047,-0.0043,-0.0039,-0.0027,-0.0063,-0.0059,-0.0056,-0.0103,-0.0103,-0.0103,0,0,-0.0199,-0.0192,-0.018,-0.0162,-0.0136,-0.0125,-0.0107,-0.0078,-0.0053,-0.0007,-0.002,-0.0011,0.0007,-0.001,-0.0019,0.0018,-0.0017,0.0019,0.0068,0.0035,0.0038,0.004,0.0013,0.0013,0.0024,0.0024,0.0024,0,-0.02,-0.0177,-0.0177,-0.0147,-0.0117,-0.0104,-0.0062,-0.0044,-0.0003,0.0022,0.0029,0.0045,0.0031,0.003,0.0045,0.0032,0.001,0.0043,0.0042,0.0044,0.0045,0.0017,0.0016,0.0027,0.0027,0.0027,0.0026,0,-0.0183,-0.015,-0.0136,-0.0088,-0.0062,-0.0021,0.0012,0.0054,0.0094,0.0112,0.0146,0.0123,0.0134,0.012,0.0098,0.01,0.008,0.0051,0.0025,0.0054,0.0022,0.0019,0.0032,0.0031,0.003,0.0029,0,0,-0.0203,-0.0136,-0.0125,-0.0074,-0.0012,0.0019,0.0077,0.013,0.0177,0.0207,0.0249,0.0237,0.0231,0.0219,0.0183,0.0153,0.014,0.0119,0.0115,0.0094,0.0074,0.0081,0.0079,0.011,0.011,0.011,0.0049,0,-0.0176,-0.0104,-0.0075,0.0019,0.0072,0.0116,0.0169,0.0219,0.0256,0.0298,0.0272,0.0297,0.0264,0.0271,0.0238,0.0158,0.0136,0.016,0.0049,0.0046,0.005,0.0077,0.011,0.0047,0.0046,0.0045,0.0045,0,-0.0154,-0.0097,-0.0004,0.0103,0.0131,0.0197,0.0299,0.0344,0.0382,0.0405,0.0415,0.0396,0.0367,0.0331,0.0232,0.0251,0.0185,0.0119,0.0114,0.0099,0.0049,0.001,0.004,0.004,0.0041,0.0041,0.0041,0,-0.0147,-0.0041,0.0046,0.0086,0.0198,0.027,0.0333,0.0395,0.0427,0.0477,0.0486,0.0465,0.0437,0.0363,0.0225,0.0245,0.0087,0.0092,0.0038,0.0037,0.0019,0.0017,0.0036,0.0036,0.0036,0.0036,0.0036,0,-0.0118,-0.0049,0.0074,0.0129,0.0252,0.032,0.0426,0.0478,0.052,0.0502,0.0547,0.0478,0.0441,0.0334,0.024,0.0116,0.0099,0.0061,0.0028,0.0047,0.0049,0.0017,0.0015,0.0034,0.0034,0.0035,0.0035,0,-0.0127,-0.0055,0.0059,0.0207,0.0263,0.0359,0.0476,0.0513,0.0571,0.054,0.0551,0.0499,0.0379,0.0311,0.0159,0.0127,0.0008,-0.0039,-0.002,-0.0055,-0.0006,-0.0004,-0.0033,-0.0034,-0.0034,-0.0034,-0.0034,0,-0.0127,-0.0067,0.0107,0.018,0.0265,0.0397,0.0455,0.054,0.0529,0.0474,0.0412,0.0355,0.0293,0.0137,0.0046,-0.0044,-0.0069,-0.008,-0.0001,0.0019,-0.0011,-0.0008,-0.0006,-0.0034,-0.0034,-0.0034,-0.0034,0,-0.0122,-0.0055,0.0034,0.0175,0.0282,0.036,0.0429,0.0421,0.0422,0.0462,0.0336,0.0295,0.0167,0.0096,0.005,-0.0059,-0.0029,-0.008,-0.0078,-0.0004,0.0018,-0.0011,-0.0009,-0.0034,-0.0034,-0.0034,-0.0034,0,-0.0119,-0.0065,0.0044,0.017,0.0255,0.0273,0.0342,0.0331,0.0352,0.0306,0.0204,0.0135,0.0105,0.0071,-0.0054,-0.0054,-0.0023,0.0017,0.0014,0.0014,0.0055,0.0092,0.0045,0,0,0,0,0,-0.0106,-0.0068,0.0021,0.0138,0.0191,0.0232,0.0271,0.0307,0.0279,0.0216,0.0248,0.0128,0.0066,0.0002,0.0014,-0.008,-0.0062,-0.0069,-0.0025,-0.0037,-0.0036,0.0006,0,0,0,0,0,0,-0.01,-0.0031,0.0002,0.0047,0.0088,0.0133,0.0143,0.0146,0.0135,0.0125,0.0105,0.0137,0.0077,0.0061,0.0008,-0.0004,0.0032,-0.0087,-0.0086,-0.0037,-0.0037,-0.0036,0.0008,0,0,0,0,0]},{"header":{"parameterUnit":"m.s-1","parameterCategory":2,"la1":30.2991,"la2":30.254,"lo1":-89.0895,"lo2":-89.0444,"dy":0.0017,"dx":0.0017,"nx":28,"ny":28,"refTime":"2025-12-26T09:00:00:Z","depth":"4","parameterNumber":3,"parameterNumberName":"V-component_of_CURRENTS"},"data":[0,0,0,0,0,0,0,0,0,0,0,0,0,0,0,0,0,0,0,0,0,0,0,0,0,0,0,0,0,0,0,0,0,0,0,0,0,0,0,0,0,0,0,0,0,0,0,0,0,0,0,0,0,0,0,0,0,0,0.0416,0.0416,0,0.0452,0.0453,0.0453,0.0521,0.0523,0.0524,0.0525,0.0535,0.0534,0.0533,0,0,0,0,0,0,0,0,0,0,0,0,0,0.0381,0.0382,0.0416,0.0416,0.0417,0.0452,0.0453,0.0453,0.0521,0.0523,0.0524,0.0526,0.0535,0.0534,0.0533,0,0,0,0,0,0,0,0,0,0,0,0,0,0.0405,0.0382,0.0416,0.0455,0.0459,0.0452,0.0453,0.0453,0.0521,0.0523,0.0525,0.0526,0.0535,0.0534,0.0533,0.0484,0,0,0.0528,0.0528,0,0,0,0,0,0,0,0,0.0403,0.0406,0.0449,0.0452,0.0457,0.0484,0.0444,0.0462,0.052,0.0497,0.0525,0.0527,0.0514,0.0514,0.0517,0.0485,0.0485,0.0528,0.0527,0.0527,0.0526,0,0,0,0,0,0,0,0.0402,0.0405,0.0431,0.0449,0.0454,0.0462,0.0468,0.0448,0.0494,0.0499,0.0504,0.0508,0.0516,0.0519,0.0518,0.0485,0.0528,0.0527,0.0526,0.0525,0.0436,0.0435,0,0,0,0,0,0,0.0396,0.0403,0.0429,0.0432,0.0434,0.0461,0.0468,0.0473,0.0495,0.05,0.0506,0.0511,0.052,0.052,0.0518,0.0474,0.0527,0.0525,0.0524,0.0438,0.0436,0.0435,0,0,0,0,0,0,0.0395,0.0398,0.0428,0.0418,0.0423,0.046,0.0466,0.0473,0.0517,0.05,0.0505,0.0547,0.0522,0.052,0.0519,0.0475,0.0525,0.0523,0.044,0.0437,0.0435,0.0378,0,0,0,0,0,0,0.0394,0.0397,0.0413,0.0418,0.0423,0.0449,0.0464,0.0472,0.0513,0.0521,0.0535,0.0536,0.0523,0.0521,0.0517,0.0474,0.0522,0.0442,0.0439,0.0436,0.0382,0.0375,0.0368,0,0,0,0,0,0.0393,0.0401,0.0413,0.0417,0.0439,0.0449,0.0453,0.0486,0.0513,0.0533,0.0534,0.0538,0.05,0.0519,0.0515,0.047,0.0443,0.044,0.0436,0.0385,0.0376,0.0368,0,0,0,0,0,0,0.0394,0.0408,0.0423,0.0436,0.0454,0.0462,0.0489,0.0504,0.0522,0.0537,0.0529,0.0528,0.0503,0.0501,0.0523,0.0436,0.0467,0.0463,0.043,0.0421,0.0414,0.0409,0.0521,0,0,0,0,0,0.0398,0.0416,0.0425,0.0443,0.0458,0.048,0.0496,0.0511,0.0519,0.0534,0.0522,0.0508,0.0476,0.0468,0.0444,0.0407,0.0409,0.0373,0.0365,0.0359,0.0352,0.0319,0.0308,0.0423,0.0424,0.0424,0,0,0.0402,0.0416,0.0426,0.0446,0.047,0.0469,0.0497,0.0526,0.0507,0.0525,0.0503,0.0489,0.0464,0.0413,0.04,0.0413,0.0329,0.0355,0.035,0.0346,0.0314,0.0303,0.0293,0.0421,0.0422,0.0422,0,0,0.0415,0.0439,0.0459,0.0468,0.0499,0.0492,0.0508,0.0514,0.0513,0.0482,0.0478,0.0447,0.0407,0.0365,0.0342,0.0285,0.0295,0.0277,0.0231,0.0198,0.0189,0.018,0.0176,0.0168,0.0269,0.0269,0.0269,0,0.0425,0.0438,0.0467,0.048,0.0475,0.0504,0.0499,0.049,0.0482,0.0454,0.0472,0.0381,0.0371,0.029,0.0266,0.0266,0.0266,0.0266,0.0189,0.0181,0.0173,0.0171,0.0162,0.0266,0.0266,0.0266,0.0267,0,0.0436,0.0452,0.0468,0.048,0.0476,0.0484,0.0461,0.0446,0.0433,0.0402,0.0334,0.0304,0.0254,0.0228,0.0229,0.0153,0.0179,0.0188,0.0212,0.0158,0.016,0.0152,0.0261,0.0262,0.0263,0.0264,0,0,0.044,0.0469,0.048,0.0476,0.0472,0.0466,0.0421,0.0373,0.0342,0.0298,0.0233,0.0163,0.016,0.0135,0.0122,0.0083,0.0032,0.0112,0.0112,0.0111,-0.0018,-0.0002,-0.0008,0.0032,0.003,0.0029,0.0009,0,0.0444,0.0467,0.046,0.0447,0.0446,0.0421,0.0371,0.0326,0.0282,0.0221,0.0165,0.0119,0.012,0.0107,0.0058,0.0035,0.0008,0.0039,0.0032,0.0032,0.0055,-0.0019,0.0023,0.0003,0.0001,-0.0,-0.0001,0,0.045,0.0459,0.0465,0.042,0.0417,0.0403,0.0325,0.0285,0.0202,0.0168,0.0103,0.0074,-0.0002,0.0027,-0.0055,-0.0032,-0.0025,-0.0038,-0.0039,-0.0011,0.0032,0.0066,-0.0015,-0.0014,-0.0013,-0.0012,-0.0011,0,0.0448,0.0446,0.045,0.0442,0.0405,0.0386,0.0358,0.0283,0.0242,0.0163,0.0125,0.003,-0.0001,-0.0043,-0.0064,-0.0057,-0.0134,-0.0125,-0.0105,-0.0102,-0.008,-0.0071,-0.0165,-0.0165,-0.0165,-0.0165,-0.0165,0,0.0428,0.0432,0.0465,0.0468,0.0445,0.0409,0.0373,0.0325,0.0256,0.018,0.0129,0.0047,-0.0018,-0.0073,-0.0086,-0.0125,-0.0145,-0.0131,-0.0122,-0.0101,-0.0095,-0.0084,-0.0075,-0.0165,-0.0165,-0.0165,-0.0165,0,0.0419,0.0448,0.0457,0.0455,0.0459,0.0451,0.0422,0.0372,0.0324,0.0224,0.0204,0.0071,-0.0018,-0.0059,-0.0129,-0.0141,-0.0176,-0.0163,-0.0125,-0.011,-0.0115,-0.0109,-0.0181,-0.0181,-0.0181,-0.0181,-0.018,0,0.0412,0.043,0.0484,0.05,0.0512,0.0509,0.0486,0.0429,0.0356,0.0212,0.0134,0.0048,-0.0042,-0.0117,-0.0165,-0.0182,-0.0167,-0.0167,-0.0172,-0.0141,-0.0125,-0.0118,-0.0111,-0.018,-0.018,-0.018,-0.018,0,0.0381,0.0438,0.0448,0.052,0.0528,0.0493,0.045,0.0396,0.0272,0.0253,0.0089,0.002,-0.008,-0.0148,-0.0129,-0.0153,-0.0179,-0.0167,-0.0168,-0.0172,-0.0141,-0.0124,-0.0117,-0.018,-0.018,-0.018,-0.018,0,0.0375,0.0386,0.0452,0.0489,0.0525,0.0454,0.0417,0.0316,0.0253,0.0097,0.004,-0.0056,-0.0103,-0.0134,-0.0151,-0.0144,-0.0156,-0.0148,-0.015,-0.015,-0.0135,-0.0091,-0.0127,0,0,0,0,0,0.0359,0.0368,0.0405,0.0412,0.0456,0.048,0.0375,0.0309,0.02,0.0099,0.0076,-0.0013,-0.0079,-0.0128,-0.0119,-0.0171,-0.0167,-0.0164,-0.016,-0.018,-0.018,-0.0166,0,0,0,0,0,0,0.0333,0.0379,0.0385,0.0375,0.0399,0.0377,0.0329,0.0221,0.0155,0.0081,0.0056,0.0042,-0.0009,-0.003,-0.0084,-0.0095,-0.009,-0.0182,-0.0182,-0.018,-0.018,-0.018,-0.0166,0,0,0,0,0]}]]